Home > Weather > Toronto > Past weeks

Flag for Canada Weather for the Past 2 Weeks in Toronto, Ontario, Canada

Now
50 °F

Partly sunny.


Feels Like: 47 °F
Forecast: 40 / 51 °F
Wind: 8 mph from Northeast

Location: Toronto Pearson International Airport

Current Time: Apr 29, 2016 at 2:10:26 PM

Latest Report: Apr 29, 2016 at 1:00 PM


Visibility: 15 mi

Pressure: 30.07 "Hg

Humidity: 32%

Dew Point: 21 °F

Location of TorontoLocation

Historic Weather in Toronto — Graph

°F

Toronto Temperature Yesterday

Maximum temperature yesterday: 48 °F (at 4:00 PM)
Minimum temperature yesterday: 34 °F (at 4:00 AM)
Average temperature yesterday: 42 °F

High & Low Weather Summary for the Past Weeks

 TemperatureHumidityPressure
High77 °F (Apr 18, 6:00 PM)94% (Apr 22, 12:00 AM)30.49 "Hg (Apr 22, 12:00 AM)
Low32 °F (Apr 15, 5:00 AM)13% (Apr 20, 5:00 PM)29.76 "Hg (Apr 26, 5:00 AM)
Average48 °F48%30.16 "Hg
* Reported Apr 14 12:00 Noon — Apr 29 12:00 Noon, Toronto, Weather by CustomWeather, © 2016

Note: Actual official high and low records may vary slightly from our data, if they occured in-between our weather recording intervals... More about our weather records

Advertising

Toronto Weather History for the Previous 24 Hours

Scroll right to see more
 ConditionsComfort  
Time TempWeatherWind HumidityBarometerVisibility
12:00 PM
Fri, Apr 29
48 °FPartly sunny.12 mph32%30.10 "Hg15 mi
11:00 AM46 °FPartly sunny.9 mph37%30.11 "Hg15 mi
10:00 AM45 °FPartly sunny.10 mph37%30.11 "Hg15 mi
9:00 AM45 °FPartly sunny.14 mph34%30.11 "Hg15 mi
8:00 AM43 °FPartly sunny.8 mph42%30.11 "Hg15 mi
7:00 AM41 °FPartly cloudy.5 mph49%30.11 "Hg15 mi
6:00 AM41 °FPassing clouds.7 mph49%30.09 "Hg15 mi
5:00 AM41 °FPassing clouds.8 mph49%30.09 "Hg15 mi
4:00 AM43 °FOvercast.13 mph42%30.09 "Hg15 mi
3:00 AM43 °FOvercast.8 mph53%30.09 "Hg15 mi
2:00 AM43 °FOvercast.3 mph49%30.09 "Hg15 mi
1:00 AM43 °FOvercast.8 mph46%30.09 "Hg15 mi
12:00 AM43 °FOvercast.8 mph46%30.09 "Hg15 mi
11:00 PM
Thu, Apr 28
43 °FPassing clouds.6 mph49%30.09 "Hg15 mi
10:00 PM45 °FPassing clouds.6 mph42%30.09 "Hg15 mi
9:00 PM45 °FPartly sunny.8 mph42%30.08 "Hg15 mi
8:00 PM45 °FMore clouds than sun.7 mph42%30.09 "Hg15 mi
7:00 PM45 °FMore clouds than sun.8 mph42%30.08 "Hg15 mi
6:00 PM46 °FMore clouds than sun.10 mph40%30.07 "Hg15 mi
5:00 PM46 °FOvercast.10 mph37%30.05 "Hg15 mi
4:00 PM48 °FOvercast.13 mph37%30.05 "Hg15 mi
3:00 PM45 °FOvercast.10 mph39%30.08 "Hg15 mi
2:00 PM46 °FOvercast.12 mph34%30.08 "Hg15 mi
Weather by CustomWeather, © 2016

See weather overviewHow to use our weather pages